Location: Northcutt
(34.7304°N, 84.4305°W)
Time: 13:28:55
(UTC+00:00)

Hubble Space Telescope - Pass Details

Date: 11 August 2022
Orbit: 531 x 535 km, 28.5° (Epoch: 27 September)

Event Time Altitude Azimuth Distance (km) Brightness Sun altitude
Rises 01:26:22 0° 255° (WSW) 2,667 5.1 -11.2°
Reaches altitude 10° 01:28:45 10° 246° (WSW) 1,777 4.0 -11.7°
Maximum altitude 01:32:30 34° 181° (S) 888 1.6 -12.4°
Enters shadow 01:34:41 20° 129° (SE) 1,267 2.0 -12.7°
